Regional Weather Roundup
Issued by NWS Binghamton, NY

Home | Current Version | Previous Version | Text Only | Print | Product List | Glossary On
Versions: 1 2 3 4 5 6 7 8 9 10 11 12 13 14 15 16 17 18 19 20 21 22 23 24 25 26 27 28 29 30 31 32 33 34 35 36 37 38 39 40 41 42 43 44 45 46 47 48 49 50
300
ASUS41 KBGM 022010
RWRBGM

REGIONAL WEATHER ROUNDUP
NATIONAL WEATHER SERVICE BINGHAMTON NY
400 PM EDT MON MAY 02 2016

Note: "fair" indicates few or no clouds below 12,000 feet with no
significant weather and/or obstructions to visibility.

* = Station(s) that does not report precipitation, such as rain,
snow, etc, also no thunder or fog.

NYZ009-015>018-022>025-036-037-044>046-055>057-062-022100
...Central New York...

CITY           SKY/WX    TMP DP  RH WIND       PRES   REMARKS
Binghamton     PTSUNNY   49  46  90 NW8       29.90S
Cortland       CLOUDY    50  46  87 W9        29.94R
Dansville      CLOUDY    50  44  80 NW8       29.98R
Elmira         CLOUDY    52  45  77 NE9       29.95R
Ithaca         CLOUDY    48  45  89 NW9       29.96R
Hamilton       CLOUDY    52  46  82 NW8G16    29.91R
Hornell        CLOUDY    48  45  87 NW8       30.01R
Monticello     CLOUDY    50  48  93 NW6       29.91S
Norwich        CLOUDY    54  46  76 NW6       29.92R
Penn Yan       CLOUDY    49  43  80 NW9       29.98R
Rome           CLOUDY    53  50  89 W10       29.92S
Sidney         CLOUDY    57  55  94 W5        29.90R
Syracuse       CLOUDY    50  46  86 NW12      29.94R
$$

PAZ038>040-043-044-047-048-072-022100
...Northeast Pennsylvania...

CITY           SKY/WX    TMP DP  RH WIND       PRES   REMARKS
Hazleton       CLOUDY    59  54  82 NW8       29.92S
Scranton       CLOUDY    58  52  80 W6        29.90R
$$
&&
KEY
WCI = Wind Chill Index
VSB = Visibility
HX  = Heat Index
$$




USA.gov is the U.S. government's official web portal to all federal, state and local government web resources and services.